Location: Del Oro Observatory
(38.3044°N, 104.8119°W)
Time: 15:23:30
(UTC-06:00)

Cosmos 1602 Rocket - Visible Passes

Search period start: 24 April 2014 00:00
Search period end: 04 May 2014 00:00
Orbit: 606 x 636 km, 82.5° (Epoch: 23 April)

Date Brightness Start Highest point End Pass type
(mag) Time Alt. Az. Time Alt. Az. Time Alt. Az.
24 Apr 6.0 23:39:48 20° N 23:39:48 20° N 23:41:15 10° N visible
25 Apr 6.0 22:20:05 13° NE 22:20:05 13° NE 22:20:38 10° NE visible
25 Apr 6.2 23:57:14 18° NNW 23:57:14 18° NNW 23:58:42 10° NNW visible
26 Apr 5.6 22:37:29 21° NNE 22:37:29 21° NNE 22:39:06 10° NNE visible
27 Apr 6.5 00:14:39 13° NW 00:14:39 13° NW 00:15:33 10° NW visible
27 Apr 5.2 22:54:52 30° N 22:54:52 30° N 22:57:09 10° N visible
28 Apr 5.9 21:35:03 11° ENE 21:35:03 11° ENE 21:35:18 10° NE visible
28 Apr 5.3 23:12:12 32° NNW 23:12:12 32° NNW 23:14:54 10° N visible
29 Apr 5.3 21:52:21 21° ENE 21:52:21 21° ENE 21:54:27 10° NE visible
29 Apr 5.7 23:29:31 23° NW 23:29:31 23° NW 23:32:16 10° NNW visible
30 Apr 4.4 22:09:37 39° NE 22:09:37 39° NE 22:12:49 10° NNE visible
30 Apr 6.3 23:46:46 14° WNW 23:46:46 14° WNW 23:48:55 10° NW visible
01 May 3.7 22:26:51 70° N 22:26:51 70° N 22:30:49 10° N visible
02 May 5.4 21:06:52 15° E 21:06:52 15° E 21:09:16 10° NE visible
02 May 4.6 22:44:01 42° W 22:44:16 42° W 22:48:30 10° N visible
03 May 4.5 21:23:59 27° E 21:24:26 28° E 21:28:13 10° NNE visible
03 May 5.6 23:01:07 20° W 23:02:17 22° WNW 23:05:47 10° NNW visible
